Погода в Бородыновке

Россия / Ставропольский край     44°08′42″N   43°07′58″E
темп.,
°C
ветер,
м/с
пор.,
м/с
влажн.,
%
обл.,
%
осадки,
мм/ч
давл.,
гПа
погр.,
м
16 января, вс
вс1600:00−1з1016674 0.0 10081131
03:00−1з1017588 0.0 10101062
06:00−1з915585 0.0 1010978
09:00−1зсз814745 0.0 10131098
12:00+1зсз915689 0.0 10141638
15:000зсз814655 0.1 10161524
18:00−2зсз6117670 0.0 1019957
21:00−2з61083100 0.0 10211046
17 января, пн
пн1700:00−2з610785 0.0 1022905
03:00−2з5107617 0.0 1023712
06:00−3з38711 0.0 1023402
09:00−2зюз36560 0.0 1023501
12:00+1з34450 0.0 1022887
15:00+1з24475 0.0 10201058
18:00−1ююв33601 0.0 102056
21:00−2ююв410630 0.0 1017261
18 января, вт
вт1800:00−2юв4116733 0.0 1015340
03:00−3юв31067100 0.0 1014334
06:00−2юв2761100 0.0 1012263
09:00−1юв245485 0.0 1011173
12:00+1юв4543100 0.0 1009318
15:00+2вюв2350100 0.0 1008163
18:000с1160100 0.0 101013
21:00−1зсз6128772 0.0 1014592
19 января, ср
ср1900:00−2з368477 0.0 1015207
03:00−1зюз1176100 0.0 101622
06:00−2сз2495100 0.4 1017261
09:00−2ссз3486100 1.0 1019461
12:00−1с3381100 0.3 1019625
15:00−1св237299 0.3 1018662
18:00−2всв2379100 0.0 101997
21:00−3вюв3586100 0.1 1018421
20 января, чт
чт2000:00−3всв1294100 0.3 1019175
03:00−3сз3693100 2.1 1020497
06:00−4сз3682100 0.3 1021562
09:00−4зсз3673100 0.3 1022679
12:00−3зсз5566100 0.0 1021942
15:00−2сз4565100 0.0 1021953
18:00−3зсз3674100 0.0 1022681
21:00−4зсз3679100 0.0 1024575